LEMUR-2-REDFERN-GOES (42059 NORAD) Tracking and Keplerian Element Data

This shows tracking and keplerian element data for the satellite.

Feedback or suggestion? Click here.




ElementValue
Catalog42059
NameLEMUR-2-REDFERN-GOES
Epoch Orbit9694
Epoch Day317.80312136
Epoch Year2018
RAAN282.9416
Inclination51.6286
Eccentricity0.0006948
Argument of Perigee94.4737
Mean Anonmoly265.7068
Mean Motion16.02252186
Decay Rate0.00265492
L11 42059U 98067LA 18317.80312136 .00265492 41645-4 44630-3 0 9996
L22 42059 51.6286 282.9416 0006948 94.4737 265.7068 16.02252186 96948

Live tracking and technical data element details for LEMUR-2-REDFERN-GOES (NORAD 42059). LEMUR-2-REDFERN-GOES can be tracked NOW for your location showing map with azimuth and elevation plus other details from your city location.

Track the satellite on the map from your city or location and see movement details for azimuth, elevation, latitude, longitude, range, height, and movement on the map or in text.







IsCatalogInMostPopularTable: catalog: 42059, numindb: 139
Update: records affected: 1



GetName: 42059 LEMUR-2-REDFERN-GOES

Hit Count: updated at: Wed, 14 Nov 2018 11:46:23 GMT